Location: Austin
(30.3000°N, 97.7500°W)
Time: 04:34:35
(UTC-06:00)

Cosmos 1777 Rocket - Pass Details

Date: 05 February 2026
Orbit: 754 x 771 km, 74.0° (Epoch: 14 February)

Event Time Altitude Azimuth Distance (km) Brightness Sun altitude
Rises 06:31:25 0° 192° (SSW) 3,193 7.2 -10.8°
Reaches altitude 10° 06:33:46 10° 191° (S) 2,271 6.5 -10.3°
Maximum altitude 06:38:55 81° 105° (ESE) 766 4.1 -9.2°
Drops below altitude 10° 06:44:05 10° 18° (NNE) 2,280 6.5 -8.1°
Sets 06:46:27 0° 18° (NNE) 3,209 7.3 -7.6°
